Location: Unspecified
(0.0000°N, 0.0000°E)
Time: 11:34:12
(UTC+00:00)

Kosmos-2233 - Pass Details

Date: 29 February 2024
Orbit: 950 x 1007 km, 82.9° (Epoch: 25 April)

Event Time Altitude Azimuth Distance (km) Brightness Sun altitude
Rises 20:15:19 0° 223° (SW) 3,634 9.2 -30.4°
Reaches altitude 10° 20:19:47 10° 254° (WSW) 2,695 8.7 -31.5°
Maximum altitude 20:21:50 12° 273° (W) 2,574 8.5 -32.1°
Drops below altitude 10° 20:23:53 10° 293° (WNW) 2,704 8.4 -32.6°
Sets 20:28:26 0° 324° (NW) 3,662 8.8 -33.7°
